Wind_Speed
10 9 9 9 10 12 14 16 18 19 18 18 18 18 17 17 17 17 17 17 17 16 17 17 18 18 19 20 22 22 23 23 24 25 24 24 25 26 26 26 26 27 27 27
8 8 8 9 10 13 15 16 17 18 18 19 19 18 18 18 18 17 17 17 16 16 17 17 18 19 19 19 19 20 21 22 22 22 23 23 23 23 23 24 24 25 25 25
8 7 7 9 11 13 15 16 17 18 18 19 19 18 19 18 18 17 16 16 16 17 18 17 17 17 17 18 19 19 19 19 20 20 21 21 21 21 21 21 22 23 24 25
8 7 9 10 10 13 16 16 16 17 18 18 18 18 18 18 17 16 16 16 17 17 17 17 17 17 16 16 17 17 17 18 18 18 18 18 18 18 19 19 20 20 21 22
8 8 10 10 9 13 16 17 16 17 17 17 17 17 17 17 16 15 16 17 17 16 16 15 15 15 15 16 16 16 16 17 17 17 17 16 16 16 17 17 18 18 19 20
7 9 11 10 10 13 16 17 16 16 16 16 16 16 15 15 15 15 15 15 15 15 14 14 14 14 15 15 14 14 14 15 15 15 15 15 15 15 16 16 17 17 18 18
8 10 10 9 11 14 15 16 16 16 16 16 16 16 15 14 14 14 14 14 13 13 12 12 13 13 13 13 13 13 13 13 12 13 13 14 14 14 15 15 16 16 17 17
9 9 9 11 13 14 15 15 15 16 15 15 15 15 14 14 13 13 13 13 12 11 11 11 11 12 11 11 11 11 12 12 12 12 13 13 13 13 13 14 14 14 14 15
8 9 10 11 12 13 14 14 14 15 15 14 14 13 13 13 12 12 12 11 10 9 9 9 10 10 9 9 9 9 10 10 10 11 11 11 11 11 12 12 12 12 12 12
7 8 8 9 10 11 12 13 13 14 14 14 13 13 12 12 11 11 10 9 8 6 6 6 6 6 6 6 7 7 7 8 8 8 9 9 9 9 9 9 10 10 10 10
6 6 7 8 9 10 11 12 12 13 13 13 13 12 11 11 10 9 8 6 5 4 5 4 3 3 4 4 4 4 5 6 6 7 7 7 7 7 7 8 8 8 8 9
5 5 6 7 8 9 10 11 12 12 12 13 12 11 11 10 10 9 7 6 5 5 5 5 5 4 4 3 3 3 4 4 5 5 5 5 5 6 6 6 7 7 8 8
5 4 5 6 7 8 9 10 11 11 12 12 11 11 10 10 10 9 8 7 7 7 6 6 6 6 5 5 5 4 4 5 5 5 5 6 5 5 5 6 6 7 7 7
4 4 4 5 6 7 9 10 10 10 11 11 11 11 11 11 10 10 9 9 8 8 8 8 8 7 7 6 6 6 6 6 6 6 6 6 6 6 6 6 7 7 7 8
3 3 3 4 5 7 8 9 9 10 10 11 12 12 12 12 11 11 11 10 10 10 10 9 9 8 8 8 8 7 7 7 7 7 7 7 7 7 8 8 8 8 9 9
3 2 1 3 4 6 8 9 10 10 10 11 11 12 13 13 13 13 12 12 11 11 11 11 11 10 10 10 9 9 9 9 9 9 9 9 9 9 9 9 10 10 10 11
4 2 0 2 4 6 8 8 9 10 11 11 12 12 13 14 14 14 14 14 13 12 12 13 13 13 12 12 12 11 11 11 11 11 10 10 10 10 11 11 11 11 12 12
5 3 2 2 3 5 7 8 9 10 11 11 12 13 14 15 15 15 15 15 15 14 14 14 14 14 14 13 13 13 12 12 12 12 12 12 12 12 12 12 12 12 13 13
6 5 3 2 3 5 7 8 9 10 11 12 12 13 14 15 16 16 16 16 16 16 15 15 15 15 15 15 14 14 14 14 14 14 13 13 13 13 13 13 13 13 14 14
8 6 5 4 4 5 6 7 9 10 10 11 12 13 14 15 16 16 17 17 17 17 16 16 16 15 15 15 15 15 15 15 15 14 14 14 14 13 13 13 13 13 13 14
10 8 6 5 5 5 6 7 8 9 10 11 12 13 14 15 15 16 17 17 17 17 17 17 16 16 16 16 16 15 16 15 15 14 14 14 14 14 13 13 13 13 13 13
11 10 8 7 6 6 6 7 8 9 10 11 12 12 13 14 15 15 16 16 16 16 16 16 16 16 16 16 15 15 16 15 15 14 14 14 14 13 13 13 13 13 13 13
13 11 10 8 7 6 6 6 7 8 9 10 11 12 12 13 13 14 14 15 15 16 16 16 15 15 15 15 14 15 15 15 14 14 14 13 13 13 12 12 12 12 12 12
15 13 11 9 8 7 6 6 6 7 8 8 9 10 10 11 12 12 13 13 14 14 14 14 14 14 14 14 14 14 14 14 13 13 13 12 12 12 12 12 11 11 11 11
18 15 13 11 9 8 6 6 6 6 7 8 8 9 9 10 10 11 11 12 13 13 13 13 13 13 13 13 13 13 13 13 12 12 12 12 12 11 11 11 11 11 11 11
20 18 15 13 11 9 7 6 5 5 6 7 7 8 8 9 9 10 10 11 11 12 12 12 13 13 13 13 13 12 12 12 12 12 12 12 12 11 11 11 11 11 11 11
22 20 17 15 13 10 8 7 5 5 5 5 6 7 7 8 9 9 9 10 10 11 11 11 12 12 12 12 12 12 12 12 12 12 12 12 12 12 12 12 12 12 13 13
Wind_Direction
264 279 295 298 295 294 293 295 296 299 301 304 303 302 304 302 300 294 291 288 284 280 276 273 274 272 268 266 265 266 268 268 267 266 266 267 267 268 268 268 267 267 268 270
257 270 283 288 289 290 293 296 299 301 302 301 303 303 303 302 300 297 293 290 284 281 279 277 278 277 273 271 270 270 273 272 270 270 270 271 271 272 272 271 271 271 273 275
254 261 271 283 283 289 295 298 298 301 304 303 303 302 301 301 301 298 294 290 284 280 275 276 278 278 275 274 273 272 274 276 276 274 272 272 272 273 273 274 275 276 277 276
263 262 260 272 286 296 301 300 303 305 305 305 306 306 301 299 299 297 295 290 284 279 279 279 276 275 276 276 277 276 276 276 275 276 274 272 272 273 275 275 276 280 279 278
266 275 281 281 299 307 310 312 310 309 310 308 308 308 306 303 302 300 298 293 287 285 286 283 278 275 276 278 280 280 280 278 277 278 279 281 282 285 284 283 283 284 283 282
273 286 293 297 311 312 311 313 316 316 315 313 312 311 311 308 306 304 301 297 292 289 285 280 277 277 277 278 279 282 284 285 283 282 282 285 288 288 287 286 285 285 284 283
280 285 292 305 312 312 314 317 320 322 320 317 317 316 314 313 310 307 302 299 294 292 286 281 279 279 280 281 283 285 288 290 289 286 285 285 286 287 285 285 286 287 286 286
267 281 297 305 308 312 316 319 323 325 325 323 322 320 318 316 314 310 309 304 299 293 290 288 285 281 281 283 284 286 288 287 287 286 286 285 286 286 287 289 290 291 290 290
281 286 295 303 311 317 321 324 327 330 330 329 328 327 326 323 320 315 316 312 308 302 295 291 288 282 277 281 283 286 288 288 291 291 289 288 289 289 291 292 293 294 296 296
280 286 295 307 316 323 327 330 333 336 337 336 336 335 332 330 331 329 326 321 320 321 313 304 298 288 283 286 290 292 296 299 303 301 299 298 296 295 296 299 302 303 306 306
280 289 299 311 321 329 334 337 338 340 343 345 345 345 345 345 344 345 348 351 353 1 2 360 347 331 321 316 309 306 311 318 318 319 316 311 309 309 309 310 315 317 318 318
281 293 307 319 328 335 339 344 346 347 348 349 352 355 358 3 6 9 14 18 21 23 25 27 26 22 15 13 6 355 351 351 349 347 344 339 334 332 332 330 329 329 329 331
274 297 316 327 337 343 347 350 352 354 357 359 2 7 11 14 17 21 25 31 33 33 38 40 40 42 41 36 31 25 21 20 19 16 13 11 9 4 359 356 353 352 350 348
264 293 316 331 345 353 355 358 1 4 9 14 18 22 24 26 29 32 37 44 46 44 44 44 44 46 45 43 40 39 38 37 36 35 33 32 30 26 23 21 18 16 13 10
241 276 309 337 355 2 5 8 13 17 21 25 30 34 35 37 41 43 48 52 53 52 51 49 49 50 49 48 47 49 48 46 44 41 42 43 42 40 38 35 32 30 26 23
214 238 303 354 9 15 19 23 26 30 33 36 38 40 42 45 48 50 54 57 59 58 56 55 55 56 57 56 55 55 55 53 52 51 52 52 51 49 45 43 42 41 38 34
199 199 172 34 32 32 31 32 35 38 41 45 46 46 46 47 50 53 56 59 62 63 62 61 62 62 61 61 60 60 60 59 59 58 57 57 55 53 51 49 48 46 42 40
190 182 157 92 57 47 43 42 44 46 49 51 52 52 52 53 55 57 59 62 65 66 66 65 64 62 62 63 63 62 63 64 63 62 61 60 59 58 56 55 53 51 48 46
184 176 161 127 85 63 53 51 52 53 54 54 54 55 56 58 59 60 62 64 65 67 67 67 66 65 65 65 65 65 66 66 66 65 64 63 62 61 60 58 57 54 52 50
183 175 163 141 111 85 68 60 58 57 58 59 59 60 60 60 60 62 63 65 66 67 68 67 66 65 65 67 68 67 68 68 67 67 66 65 63 62 60 58 56 54 52 50
184 176 165 149 126 104 84 72 66 63 64 64 63 63 63 62 62 63 64 65 66 67 68 68 67 67 67 67 69 68 68 68 67 67 66 64 62 60 58 56 54 52 51 49
183 176 167 154 137 117 98 85 76 71 69 68 67 66 65 64 63 64 64 65 65 66 66 66 66 66 66 65 65 67 67 66 65 65 64 62 60 57 54 52 50 49 47 45
183 177 170 161 148 131 112 96 86 78 74 70 68 67 66 65 64 64 63 62 62 63 63 63 62 62 63 63 62 63 63 63 62 61 60 58 55 52 50 47 45 44 42 41
185 181 175 169 160 145 127 111 97 86 78 72 69 66 65 64 63 62 60 59 58 58 59 59 58 59 59 59 57 57 58 58 56 55 53 51 48 45 43 41 39 37 35 33
189 185 181 176 169 158 141 123 108 95 84 75 70 66 63 61 60 59 58 57 56 55 55 55 54 54 53 52 51 51 51 50 49 46 44 42 39 36 33 31 29 27 25 23
192 189 186 182 178 171 159 142 124 107 91 80 71 66 62 59 58 56 55 53 52 52 51 50 49 48 48 47 45 43 42 41 39 37 35 32 29 26 23 19 16 13 10 7
195 193 190 187 185 179 172 162 147 126 103 85 73 65 59 55 52 51 49 48 47 45 44 43 42 41 40 39 38 37 35 33 31 29 26 24 21 18 14 11 8 5 2 359
Height
5757 5757 5756 5757 5757 5756 5755 5753 5751 5748 5746 5744 5741 5739 5737 5736 5734 5733 5732 5731 5730 5730 5730 5729 5729 5729 5729 5729 5730 5731 5732 5732 5733 5733 5734 5735 5736 5736 5737 5738 5738 5739 5739 5740
5755 5755 5755 5755 5755 5753 5752 5750 5748 5745 5744 5741 5737 5735 5733 5732 5731 5729 5728 5727 5726 5725 5725 5725 5724 5724 5724 5724 5725 5726 5726 5727 5727 5728 5728 5728 5729 5730 5730 5730 5731 5732 5732 5733
5752 5752 5752 5753 5752 5751 5749 5747 5745 5742 5741 5737 5735 5733 5731 5729 5727 5726 5724 5723 5722 5721 5721 5720 5720 5720 5720 5720 5720 5720 5721 5721 5722 5722 5722 5723 5723 5723 5724 5724 5725 5725 5725 5726
5749 5750 5750 5751 5748 5747 5745 5743 5740 5738 5736 5734 5731 5729 5727 5725 5724 5722 5720 5719 5718 5717 5716 5716 5715 5715 5715 5715 5715 5716 5716 5716 5717 5717 5717 5717 5717 5718 5718 5718 5719 5719 5719 5719
5748 5747 5746 5745 5744 5744 5742 5740 5737 5735 5733 5730 5727 5725 5723 5721 5720 5718 5717 5715 5713 5712 5711 5711 5711 5711 5711 5711 5712 5712 5712 5712 5712 5713 5713 5713 5713 5713 5713 5714 5714 5714 5713 5713
5746 5745 5744 5743 5743 5741 5741 5738 5735 5732 5729 5727 5724 5723 5721 5718 5716 5715 5713 5711 5710 5708 5708 5707 5707 5707 5707 5707 5708 5708 5708 5708 5708 5708 5709 5709 5709 5709 5709 5709 5709 5709 5708 5708
5744 5743 5741 5741 5740 5741 5740 5737 5733 5729 5727 5724 5722 5720 5718 5715 5713 5712 5710 5708 5707 5705 5705 5704 5704 5704 5704 5704 5704 5704 5705 5705 5705 5705 5705 5705 5705 5705 5705 5704 5704 5704 5703 5703
5742 5742 5742 5740 5740 5739 5737 5733 5730 5728 5725 5722 5719 5717 5715 5713 5711 5709 5707 5705 5704 5703 5702 5701 5701 5701 5701 5701 5701 5701 5702 5702 5702 5702 5701 5701 5701 5701 5701 5700 5700 5699 5699 5698
5740 5742 5740 5739 5738 5736 5734 5732 5729 5726 5723 5720 5718 5715 5713 5711 5709 5706 5705 5703 5701 5700 5699 5699 5698 5698 5698 5698 5698 5699 5699 5699 5698 5698 5698 5698 5698 5698 5697 5697 5696 5696 5695 5694
5739 5739 5739 5738 5736 5735 5733 5730 5728 5725 5722 5719 5716 5714 5711 5709 5707 5704 5702 5701 5700 5698 5698 5697 5697 5696 5696 5696 5696 5696 5696 5696 5696 5695 5695 5695 5695 5695 5695 5694 5694 5693 5692 5692
5739 5739 5738 5737 5736 5734 5732 5729 5727 5724 5721 5719 5716 5713 5710 5708 5706 5704 5702 5700 5699 5698 5698 5697 5696 5696 5695 5694 5694 5694 5694 5694 5694 5693 5693 5693 5693 5692 5692 5692 5691 5691 5690 5689
5739 5738 5738 5737 5735 5733 5731 5729 5726 5724 5721 5718 5716 5713 5710 5708 5706 5704 5702 5701 5700 5699 5698 5697 5696 5696 5695 5695 5694 5694 5694 5694 5693 5693 5692 5692 5691 5691 5690 5690 5690 5689 5689 5688
5738 5738 5737 5736 5735 5733 5731 5729 5726 5724 5721 5719 5716 5714 5711 5709 5707 5705 5703 5702 5701 5700 5699 5698 5697 5697 5696 5696 5695 5695 5694 5694 5694 5693 5692 5692 5691 5691 5690 5690 5689 5688 5688 5687
5738 5738 5737 5736 5735 5733 5731 5729 5727 5724 5722 5720 5717 5715 5713 5710 5708 5706 5705 5704 5702 5701 5700 5700 5699 5698 5697 5697 5696 5696 5695 5695 5694 5694 5693 5693 5692 5691 5691 5690 5690 5689 5688 5687
5738 5738 5738 5736 5735 5733 5732 5729 5727 5725 5723 5721 5719 5717 5715 5713 5711 5709 5707 5706 5705 5704 5703 5702 5701 5700 5699 5698 5698 5698 5697 5696 5696 5695 5695 5694 5694 5693 5692 5691 5691 5690 5689 5688
5737 5738 5738 5737 5736 5734 5733 5731 5729 5727 5726 5724 5722 5720 5718 5716 5714 5712 5710 5708 5707 5706 5705 5704 5703 5702 5701 5701 5700 5700 5699 5698 5698 5697 5697 5696 5695 5695 5694 5693 5692 5691 5690 5689
5738 5738 5738 5738 5737 5736 5734 5733 5731 5730 5728 5727 5725 5723 5721 5719 5717 5715 5713 5712 5710 5710 5709 5708 5707 5705 5704 5704 5703 5702 5702 5701 5700 5700 5699 5698 5698 5697 5696 5695 5694 5693 5692 5691
5738 5739 5739 5739 5738 5737 5736 5735 5734 5732 5731 5730 5728 5727 5725 5723 5721 5719 5717 5716 5714 5713 5712 5711 5710 5709 5708 5707 5706 5706 5705 5704 5703 5703 5702 5701 5701 5700 5699 5698 5697 5696 5695 5693
5738 5739 5740 5740 5740 5739 5739 5738 5737 5735 5734 5733 5732 5730 5729 5727 5725 5723 5722 5720 5719 5718 5716 5715 5714 5713 5712 5711 5710 5709 5708 5708 5707 5706 5705 5705 5704 5703 5702 5701 5700 5699 5698 5697
5739 5740 5740 5741 5741 5741 5741 5740 5739 5738 5737 5736 5735 5734 5733 5731 5730 5728 5726 5725 5724 5722 5721 5720 5718 5717 5716 5715 5714 5713 5712 5712 5711 5710 5709 5708 5708 5707 5706 5705 5704 5702 5701 5700
5739 5740 5741 5742 5743 5743 5743 5743 5742 5741 5741 5740 5739 5738 5737 5735 5734 5732 5731 5730 5728 5727 5725 5724 5723 5722 5721 5720 5718 5717 5716 5715 5715 5714 5713 5712 5711 5710 5709 5708 5707 5706 5704 5703
5739 5741 5742 5743 5744 5745 5745 5745 5744 5744 5744 5743 5742 5741 5740 5739 5738 5737 5736 5734 5733 5731 5730 5729 5728 5726 5725 5724 5723 5722 5720 5719 5719 5718 5717 5716 5715 5714 5713 5712 5710 5709 5707 5706
5739 5741 5743 5744 5745 5746 5746 5747 5747 5747 5746 5746 5745 5745 5744 5743 5742 5741 5740 5739 5737 5736 5734 5733 5732 5731 5729 5728 5727 5726 5724 5723 5722 5721 5720 5719 5718 5717 5716 5714 5713 5712 5710 5709
5739 5741 5743 5745 5746 5747 5748 5748 5749 5749 5749 5748 5748 5747 5747 5746 5745 5744 5743 5742 5741 5739 5738 5737 5736 5735 5733 5732 5731 5729 5728 5727 5726 5725 5724 5722 5721 5720 5718 5717 5715 5714 5712 5711
5738 5741 5743 5745 5747 5748 5749 5750 5750 5750 5750 5750 5750 5749 5749 5748 5748 5747 5746 5745 5744 5743 5742 5740 5739 5738 5736 5735 5734 5733 5731 5730 5729 5728 5726 5725 5723 5722 5721 5719 5717 5716 5714 5712
5737 5740 5743 5745 5747 5748 5750 5751 5751 5752 5752 5752 5752 5751 5751 5750 5750 5749 5748 5747 5746 5745 5744 5743 5742 5741 5739 5738 5737 5736 5734 5733 5731 5730 5729 5727 5725 5724 5722 5721 5719 5717 5715 5714
5735 5738 5741 5744 5746 5748 5750 5751 5752 5752 5753 5753 5753 5753 5752 5752 5751 5751 5750 5749 5749 5748 5747 5745 5744 5743 5742 5740 5739 5738 5736 5735 5733 5732 5730 5729 5727 5725 5724 5722 5720 5718 5716 5714